This demonstration page uses our WeatherBlox Daily Observations layout. Learn more.

Hourly Observations for June 23, 2015

Temp ( °F °C ) Dew Point ( °F °C ) Humidity (%) Winds ( mph kmh ) Pressure ( in mb ) Visibility ( mi km ) Precip ( " mm )
12:35 am 00:35 Clear 59 15 52 11 77 77 N 8 13 30.09 1019 10 16.09344 0 0
12:55 am 00:55 Clear 59 15 52 11 77 77 N 7 11 30.09 1019 10 16.09344 0 0
1:15 am 01:15 Clear 59 15 52 11 77 77 Calm 30.09 1019 10 16.09344 0 0
1:35 am 01:35 Clear 61 16 52 11 72 72 Calm 30.09 1019 10 16.09344 0 0
1:55 am 01:55 Clear 59 15 52 11 77 77 S 3 6 30.09 1019 10 16.09344 0 0
2:15 am 02:15 Clear 61 16 52 11 72 72 S 3 6 30.09 1019 10 16.09344 0 0
2:35 am 02:35 Clear 57 14 50 10 77 77 Calm 30.09 1019 10 16.09344 0 0
2:55 am 02:55 Clear 57 14 52 11 82 82 SE 3 6 30.09 1019 10 16.09344 0 0
3:15 am 03:15 Partly Cloudy 57 14 52 11 82 82 Calm 30.09 1019 10 16.09344 0 0
3:35 am 03:35 Mostly Cloudy 57 14 52 11 82 82 E 3 6 30.09 1019 10 16.09344 0 0
3:55 am 03:55 Mostly Cloudy 59 15 54 12 82 82 E 3 6 30.09 1019 10 16.09344 0 0
4:15 am 04:15 Cloudy 61 16 54 12 77 77 E 3 6 30.09 1019 10 16.09344 0 0
4:35 am 04:35 Mostly Cloudy 61 16 52 11 72 72 E 5 7 30.09 1019 10 16.09344 0 0
4:55 am 04:55 Cloudy 61 16 54 12 77 77 E 5 7 30.09 1019 10 16.09344 0 0
5:15 am 05:15 Mostly Cloudy 61 16 52 11 72 72 E 6 9 30.09 1019 10 16.09344 0 0
5:35 am 05:35 Partly Cloudy 59 15 52 11 77 77 ESE 7 11 30.09 1019 10 16.09344 0 0
5:55 am 05:55 Clear 59 15 52 11 77 77 E 3 6 30.09 1019 10 16.09344 0 0
6:15 am 06:15 Mostly Cloudy 59 15 52 11 77 77 Calm 30.12 1020 10 16.09344 0 0
6:35 am 06:35 Cloudy 61 16 54 12 77 77 Calm 30.12 1020 10 16.09344 0 0
6:55 am 06:55 Cloudy 61 16 54 12 77 77 Calm 30.12 1020 10 16.09344 0 0
7:15 am 07:15 Cloudy 61 16 54 12 77 77 Calm 30.12 1020 10 16.09344 0 0
7:35 am 07:35 Cloudy 63 17 54 12 73 73 ESE 3 6 30.12 1020 10 16.09344 0 0
7:55 am 07:55 Cloudy 63 17 54 12 73 73 ESE 6 9 30.12 1020 10 16.09344 0 0
8:15 am 08:15 Cloudy 64 18 54 12 68 68 SE 6 9 30.09 1019 10 16.09344 0 0
8:35 am 08:35 Cloudy 64 18 54 12 68 68 ESE 5 7 30.09 1019 10 16.09344 0 0
8:55 am 08:55 Cloudy 66 19 54 12 64 64 E 7 11 30.09 1019 10 16.09344 0 0
9:15 am 09:15 Cloudy 66 19 54 12 64 64 ESE 9 15 30.09 1019 10 16.09344 0 0
9:35 am 09:35 Cloudy 66 19 54 12 64 64 ESE 7 11 30.09 1019 10 16.09344 0 0
9:55 am 09:55 Cloudy 68 20 54 12 60 60 ESE 6 9 30.09 1019 10 16.09344 0 0
10:15 am 10:15 Cloudy 68 20 54 12 60 60 ESE 9 15 30.09 1019 10 16.09344 0 0
10:35 am 10:35 Cloudy 68 20 54 12 60 60 ESE 10 17 30.09 1019 10 16.09344 0 0
10:55 am 10:55 Cloudy 68 20 52 11 56 56 E 9 15 30.09 1019 10 16.09344 0 0
11:15 am 11:15 Cloudy 68 20 54 12 60 60 ESE 13 20 30.09 1019 10 16.09344 0 0
11:35 am 11:35 Cloudy 68 20 54 12 60 60 ESE 10 17 30.09 1019 10 16.09344 0 0
11:55 am 11:55 Cloudy 68 20 54 12 60 60 ESE 10 17 30.12 1020 10 16.09344 0 0
12:15 pm 12:15 Cloudy 68 20 54 12 60 60 ESE 12 19 30.09 1019 10 16.09344 0 0
12:35 pm 12:35 Cloudy 70 21 55 13 60 60 ESE 12 19 30.06 1018 10 16.09344 0 0
12:55 pm 12:55 Cloudy 70 21 55 13 60 60 ESE 12 19 30.06 1018 10 16.09344 0 0
1:15 pm 13:15 Cloudy 72 22 55 13 57 57 E 15 24 30.06 1018 10 16.09344 0 0
1:35 pm 13:35 Mostly Cloudy 72 22 54 12 53 53 E 15 24 30.03 1017 10 16.09344 0 0
1:55 pm 13:55 Partly Cloudy 73 23 52 11 47 47 E 13 20 30.03 1017 10 16.09344 0 0
2:15 pm 14:15 Sunny 75 24 52 11 44 44 ESE 13 20 30.03 1017 10 16.09344 0 0
2:35 pm 14:35 Sunny 75 24 52 11 44 44 E 15 24 30.03 1017 10 16.09344 0 0
2:55 pm 14:55 Sunny 75 24 52 11 44 44 ESE 14 22 30.03 1017 10 16.09344 0 0
3:15 pm 15:15 Sunny 75 24 50 10 41 41 ESE 13 20 30.03 1017 10 16.09344 0 0
3:35 pm 15:35 Sunny 75 24 54 12 47 47 ESE 16 26 30.03 1017 10 16.09344 0 0
3:55 pm 15:55 Sunny 75 24 54 12 47 47 E 15 24 30.03 1017 10 16.09344 0 0
4:15 pm 16:15 Sunny 75 24 55 13 50 50 ESE 17 28 30.03 1017 10 16.09344 0 0
4:35 pm 16:35 Sunny 75 24 55 13 50 50 E 16 26 30.03 1017 10 16.09344 0 0
4:55 pm 16:55 Sunny 75 24 57 14 54 54 E 17 28 29.97 1015 10 16.09344 0 0
5:15 pm 17:15 Sunny 75 24 57 14 54 54 E 16 26 29.97 1015 10 16.09344 0 0
5:35 pm 17:35 Sunny 77 25 59 15 54 54 E 17 28 29.97 1015 10 16.09344 0 0
5:55 pm 17:55 Sunny 77 25 59 15 54 54 E 15 24 29.97 1015 10 16.09344 0 0
6:15 pm 18:15 Sunny 75 24 59 15 57 57 E 18 30 29.97 1015 10 16.09344 0 0
6:35 pm 18:35 Sunny 75 24 59 15 57 57 E 17 28 29.97 1015 10 16.09344 0 0
6:55 pm 18:55 Sunny 73 23 59 15 61 61 E 16 26 30 1016 10 16.09344 0 0
7:15 pm 19:15 Sunny 73 23 59 15 61 61 E 18 30 29.97 1015 10 16.09344 0 0
7:35 pm 19:35 Sunny 72 22 59 15 65 65 E 17 28 29.97 1015 10 16.09344 0 0
7:55 pm 19:55 Sunny 72 22 59 15 65 65 E 14 22 29.97 1015 10 16.09344 0 0
8:15 pm 20:15 Sunny 70 21 59 15 69 69 E 17 28 29.97 1015 10 16.09344 0 0
8:35 pm 20:35 Sunny 70 21 59 15 69 69 E 12 19 30 1016 10 16.09344 0 0
8:55 pm 20:55 Sunny 68 20 59 15 73 73 E 12 19 30 1016 10 16.09344 0 0
9:15 pm 21:15 Clear 68 20 57 14 69 69 E 13 20 30 1016 10 16.09344 0 0
9:35 pm 21:35 Clear 68 20 57 14 69 69 ENE 10 17 30 1016 10 16.09344 0 0
9:55 pm 21:55 Clear 66 19 59 15 78 78 ENE 10 17 30 1016 10 16.09344 0 0
10:15 pm 22:15 Clear 66 19 59 15 78 78 ENE 9 15 30 1016 10 16.09344 0 0
10:35 pm 22:35 Clear 66 19 59 15 78 78 ENE 10 17 30 1016 10 16.09344 0 0
10:55 pm 22:55 Clear 66 19 59 15 78 78 E 9 15 30 1016 10 16.09344 0 0
11:15 pm 23:15 Clear 64 18 59 15 83 83 E 9 15 30 1016 10 16.09344 0 0
11:35 pm 23:35 Clear 64 18 59 15 83 83 E 12 19 30 1016 10 16.09344 0 0
11:55 pm 23:55 Clear 64 18 59 15 83 83 E 12 19 29.97 1015 10 16.09344 0 0

Powered by AerisWeather